Orange City, IA

10:45 AM CDT on May 26, 2017 (GMT -0500)
Orange City Municipal

Weather History for KORC - May, 2014

Change the Weather History Date:

Sunday, May 25, 2014

  Actual Average Record
Temperature  
Mean Temperature 71 °F -  
Max Temperature 80 °F 70 °F 88 °F (1953)
Min Temperature 62 °F 51 °F 41 °F (2002)
Cooling Degree Days 6    
Growing Degree Days 21 (Base 50)    
Moisture  
Dew Point 59 °F    
Average Humidity 67    
Maximum Humidity 88    
Minimum Humidity 54    
Precipitation  
Precipitation 0.00 in - - ()
Sea Level Pressure  
Sea Level Pressure 29.97 in    
Wind  
Wind Speed 6 mph (South)    
Max Wind Speed 15 mph    
Max Gust Speed 18 mph    
Visibility 10 miles    
Events      
Averages and records for this station are not official NWS values.
T = Trace of Precipitation, MM = Missing Value Source: NWS Daily Summary

Daily Weather History Graph

Daily Weather History Graph

Search for Another Location

Airport or City:

Trip Planner

Search our weather history database for the weather conditions in past years. The results will help you decide how hot, cold, wet, or windy it might be!

Date:

Astronomy

May. 25, 2014 Rise Set
Actual Time 5:52 AM CDT 8:50 PM CDT
Civil Twilight 5:18 AM CDT 9:24 PM CDT
Nautical Twilight 4:35 AM CDT 10:07 PM CDT
Astronomical Twilight 3:44 AM CDT 10:58 PM CDT
Moon 4:02 AM CDT (5/25) 5:48 PM CDT (5/25)
Length of Visible Light 16h 06m
Length of Day
14h 58m
Waning Crescent, 10% of the Moon is Illuminated
May 25
Waning Crescent
May 28
New
Jun 5
First Quarter
Jun 12
Full
Jun 19
Last Quarter

Hourly Weather History & Observations

Time (CDT) Temp. Heat Index Dew Point Humidity Pressure Visibility Wind Dir Wind Speed Gust Speed Precip Events Conditions
12:15 AM 66.2 °F - 50.0 °F 56% 30.03 in 10.0 mi SSE 6.9 mph - N/A   Clear
12:35 AM 66.2 °F - 51.8 °F 60% 30.03 in 10.0 mi SSE 6.9 mph - N/A   Clear
12:55 AM 64.4 °F - 51.8 °F 64% 30.04 in 10.0 mi SSE 5.8 mph - N/A   Clear
1:15 AM 64.4 °F - 51.8 °F 64% 30.04 in 10.0 mi SSE 4.6 mph - N/A   Clear
1:35 AM 64.4 °F - 53.6 °F 68% 30.03 in 10.0 mi SSE 4.6 mph - N/A   Clear
1:55 AM 64.4 °F - 53.6 °F 68% 30.03 in 10.0 mi SSE 4.6 mph - N/A   Clear
2:15 AM 62.6 °F - 51.8 °F 68% 30.03 in 10.0 mi Calm Calm - N/A   Clear
2:35 AM 62.6 °F - 53.6 °F 72% 30.02 in 10.0 mi Calm Calm - N/A   Mostly Cloudy
2:55 AM 62.6 °F - 53.6 °F 72% 30.02 in 10.0 mi Calm Calm - N/A   Overcast
3:15 AM 64.4 °F - 53.6 °F 68% 30.01 in 10.0 mi SE 3.5 mph - N/A   Overcast
3:35 AM 64.4 °F - 53.6 °F 68% 30.01 in 10.0 mi Calm Calm - N/A   Overcast
3:55 AM 64.4 °F - 55.4 °F 73% 30.01 in 10.0 mi Calm Calm - N/A   Overcast
4:15 AM 64.4 °F - 55.4 °F 73% 30.01 in 10.0 mi Calm Calm - N/A   Overcast
4:35 AM 64.4 °F - 57.2 °F 77% 30.00 in 10.0 mi SE 3.5 mph - N/A   Overcast
4:55 AM 64.4 °F - 55.4 °F 73% 30.00 in 10.0 mi SE 4.6 mph - N/A   Overcast
5:15 AM 64.4 °F - 55.4 °F 73% 30.00 in 10.0 mi SSE 4.6 mph - N/A   Overcast
5:35 AM 66.2 °F - 59.0 °F 78% 29.99 in 10.0 mi SSE 6.9 mph - N/A   Overcast
5:55 AM 64.4 °F - 60.8 °F 88% 30.00 in 10.0 mi SSE 4.6 mph - N/A   Overcast
6:15 AM 64.4 °F - 59.0 °F 83% 30.00 in 10.0 mi SE 3.5 mph - N/A   Overcast
6:35 AM 66.2 °F - 59.0 °F 78% 30.00 in 10.0 mi SSE 5.8 mph - N/A   Overcast
6:55 AM 64.4 °F - 60.8 °F 88% 30.00 in 10.0 mi SE 3.5 mph - N/A   Overcast
7:15 AM 64.4 °F - 59.0 °F 83% 30.00 in 10.0 mi SE 4.6 mph - N/A   Overcast
7:35 AM 64.4 °F - 59.0 °F 83% 30.00 in 10.0 mi SSE 6.9 mph - N/A   Overcast
7:55 AM 66.2 °F - 59.0 °F 78% 30.00 in 10.0 mi SSE 5.8 mph - N/A   Overcast
8:15 AM 68.0 °F - 60.8 °F 78% 30.00 in 10.0 mi SSE 6.9 mph - N/A   Overcast
8:35 AM 68.0 °F - 60.8 °F 78% 30.00 in 10.0 mi SSE 6.9 mph - N/A   Overcast
8:55 AM 68.0 °F - 60.8 °F 78% 30.00 in 10.0 mi SSE 8.1 mph - N/A   Overcast
9:15 AM 68.0 °F - 60.8 °F 78% 30.00 in 10.0 mi SSE 9.2 mph - N/A   Overcast
9:55 AM 69.8 °F - 60.8 °F 73% 29.99 in 10.0 mi South 6.9 mph - N/A   Overcast
10:15 AM 69.8 °F - 60.8 °F 73% 29.99 in 10.0 mi SSE 8.1 mph - N/A   Scattered Clouds
10:35 AM 71.6 °F - 60.8 °F 69% 29.99 in 10.0 mi SSE 8.1 mph - N/A   Mostly Cloudy
10:55 AM 71.6 °F - 60.8 °F 69% 29.99 in 7.0 mi SSE 8.1 mph - N/A   Overcast
11:15 AM 71.6 °F - 60.8 °F 69% 29.98 in 10.0 mi SSE 9.2 mph - N/A   Overcast
11:55 AM 71.6 °F - 60.8 °F 69% 29.98 in 10.0 mi SSE 8.1 mph - N/A   Mostly Cloudy
12:15 PM 71.6 °F - 60.8 °F 69% 29.98 in 10.0 mi SSE 9.2 mph - N/A   Mostly Cloudy
12:35 PM 71.6 °F - 60.8 °F 69% 29.98 in 10.0 mi South 10.4 mph - N/A   Mostly Cloudy
12:55 PM 73.4 °F - 62.6 °F 69% 29.98 in 10.0 mi SSE 9.2 mph - N/A   Mostly Cloudy
1:15 PM 71.6 °F - 60.8 °F 69% 29.97 in 10.0 mi SSE 8.1 mph - N/A   Mostly Cloudy
1:55 PM 77.0 °F - 62.6 °F 61% 29.97 in 10.0 mi SSW 9.2 mph 16.1 mph N/A   Scattered Clouds
2:15 PM 75.2 °F - 62.6 °F 65% 29.97 in 10.0 mi SSW 11.5 mph 17.3 mph N/A   Mostly Cloudy
2:35 PM 77.0 °F - 62.6 °F 61% 29.96 in 10.0 mi SSW 10.4 mph - N/A   Scattered Clouds
2:55 PM 77.0 °F - 62.6 °F 61% 29.95 in 10.0 mi SSW 10.4 mph - N/A   Scattered Clouds
3:15 PM 78.8 °F - 62.6 °F 57% 29.95 in 10.0 mi SSW 12.7 mph - N/A   Scattered Clouds
3:35 PM 78.8 °F - 60.8 °F 54% 29.95 in 10.0 mi South 10.4 mph - N/A   Scattered Clouds
3:55 PM 78.8 °F - 60.8 °F 54% 29.94 in 10.0 mi SSW 9.2 mph 16.1 mph N/A   Mostly Cloudy
4:15 PM 78.8 °F - 60.8 °F 54% 29.94 in 10.0 mi SSW 10.4 mph 17.3 mph N/A   Scattered Clouds
4:35 PM 78.8 °F - 60.8 °F 54% 29.92 in 10.0 mi South 10.4 mph - N/A   Scattered Clouds
4:55 PM 78.8 °F - 60.8 °F 54% 29.92 in 10.0 mi SSW 9.2 mph 16.1 mph N/A   Scattered Clouds
5:15 PM 78.8 °F - 60.8 °F 54% 29.92 in 10.0 mi South 9.2 mph 17.3 mph N/A   Scattered Clouds
5:35 PM 80.6 °F 81.8 °F 62.6 °F 54% 29.91 in 10.0 mi South 11.5 mph 18.4 mph N/A   Scattered Clouds
5:55 PM 78.8 °F - 62.6 °F 57% 29.90 in 10.0 mi South 15.0 mph - N/A   Scattered Clouds
6:15 PM 78.8 °F - 62.6 °F 57% 29.89 in 10.0 mi SSW 11.5 mph - N/A   Clear
6:35 PM 78.8 °F - 62.6 °F 57% 29.89 in 10.0 mi South 10.4 mph - N/A   Clear
6:55 PM 77.0 °F - 62.6 °F 61% 29.88 in 10.0 mi South 10.4 mph - N/A   Clear
7:15 PM 78.8 °F - 62.6 °F 57% 29.89 in 10.0 mi South 8.1 mph - N/A   Clear
7:35 PM 78.8 °F - 62.6 °F 57% 29.90 in 10.0 mi SSE 3.5 mph - N/A   Clear
7:55 PM 78.8 °F - 62.6 °F 57% 29.90 in 10.0 mi South 4.6 mph - N/A   Clear
8:15 PM 77.0 °F - 62.6 °F 61% 29.91 in 10.0 mi SSE 4.6 mph - N/A   Clear
8:35 PM 75.2 °F - 60.8 °F 61% 29.92 in 10.0 mi South 4.6 mph - N/A   Clear
8:55 PM 75.2 °F - 60.8 °F 61% 29.92 in 10.0 mi SSE 4.6 mph - N/A   Clear
9:15 PM 75.2 °F - 62.6 °F 65% 29.93 in 10.0 mi SSE 4.6 mph - N/A   Clear
9:35 PM 73.4 °F - 60.8 °F 65% 29.94 in 10.0 mi South 3.5 mph - N/A   Clear
9:55 PM 75.2 °F - 62.6 °F 65% 29.94 in 10.0 mi South 4.6 mph - N/A   Clear
10:15 PM 73.4 °F - 62.6 °F 69% 29.95 in 10.0 mi South 5.8 mph - N/A   Clear
10:35 PM 73.4 °F - 62.6 °F 69% 29.95 in 10.0 mi South 10.4 mph 17.3 mph N/A   Clear
10:55 PM 71.6 °F - 60.8 °F 69% 29.94 in 10.0 mi SSW 8.1 mph - N/A   Clear
11:15 PM 71.6 °F - 60.8 °F 69% 29.94 in 10.0 mi South 4.6 mph - N/A   Clear
11:35 PM 69.8 °F - 60.8 °F 73% 29.94 in 10.0 mi South 8.1 mph - N/A   Clear
11:55 PM 71.6 °F - 60.8 °F 69% 29.94 in 10.0 mi SSW 8.1 mph - N/A   Clear